DW0826 Weather Reports


Display with metric or nautical units.
time (UTC)temp
F
wind
direction
speed
MPH
gust
MPH
rain 1hr
in
rain 24hr
in
rain mn
in
humidity
%
barometer
mb
20210226003158 45 152 0.0 5.0 0.00 0.00 0.00 67 1023.5
20210226000211 48 171 0.0 8.0 0.00 0.00 0.00 63 1023.4
20210225233201 48 327 2.0 9.0 0.00 0.00 0.00 62 1023.4
20210225230200 49 355 2.0 11.0 0.00 0.00 0.00 60 1023.5
20210225223316 49 123 5.0 9.0 0.00 0.00 0.00 63 1023.2
20210225220228 49 141 8.0 13.0 0.00 0.00 0.00 64 1023.3
20210225213243 49 155 2.0 12.0 0.00 0.00 0.00 63 1023.7
20210225210156 49 126 1.0 12.0 0.00 0.00 0.00 60 1023.9
20210225203339 49 140 5.0 11.0 0.00 0.00 0.00 61 1024.5
20210225200158 49 183 4.0 11.0 0.00 0.00 0.00 63 1024.8
20210225193201 47 186 6.0 12.0 0.00 0.00 0.00 62 1025.1
20210225190157 48 137 4.0 11.0 0.00 0.00 0.00 59 1025.0
20210225183209 46 140 4.0 9.0 0.00 0.00 0.00 58 1025.1
20210225180201 45 141 0.0 10.0 0.00 0.00 0.00 59 1025.2
20210225173209 45 140 2.0 8.0 0.00 0.00 0.00 49 1025.1
20210225170205 43 122 4.0 5.0 0.00 0.00 0.00 43 1024.8
20210225163203 42 18 0.0 6.0 0.00 0.00 0.00 41 1024.7
20210225160201 39 344 6.0 10.0 0.00 0.00 0.00 40 1024.7
20210225153214 39 355 3.0 9.0 0.00 0.00 0.00 41 1024.5
20210225150155 38 291 0.0 4.0 0.00 0.00 0.00 45 1023.9
20210225143204 38 276 1.0 4.0 0.00 0.00 0.00 48 1023.6
20210225140201 39 275 2.0 9.0 0.00 0.00 0.00 44 1023.3
20210225133208 37 329 5.0 10.0 0.00 0.00 0.00 49 1023.5
20210225130156 37 290 0.0 10.0 0.00 0.00 0.00 50 1023.6
20210225123156 40 0 8.0 9.0 0.00 0.00 0.00 44 1023.4
20210225120159 39 300 2.0 10.0 0.00 0.00 0.00 46 1023.3
20210225113205 40 331 5.0 10.0 0.00 0.00 0.00 43 1023.6
20210225110158 39 325 0.0 7.0 0.00 0.00 0.00 48 1023.7
20210225103159 41 337 2.0 9.0 0.00 0.00 0.00 45 1023.6
20210225100155 42 303 0.0 3.0 0.00 0.00 0.00 47 1023.7
20210225093158 42 284 0.0 6.0 0.00 0.00 0.00 45 1024.1
20210225090155 42 279 0.0 11.0 0.00 0.00 0.00 46 1023.9
20210225083159 40 336 10.0 12.0 0.00 0.00 0.00 53 1023.8
20210225080159 42 346 4.0 12.0 0.00 0.00 0.00 55 1023.4
20210225073205 43 321 8.0 11.0 0.00 0.00 0.00 55 1023.7
20210225070201 44 5 3.0 14.0 0.00 0.00 0.00 54 1023.7
20210225063201 44 315 8.0 15.0 0.00 0.00 0.00 46 1023.8
20210225060205 42 319 13.0 14.0 0.00 0.00 0.00 40 1023.6
20210225053207 41 275 0.0 4.0 0.00 0.00 0.00 59 1023.9
20210225050201 42 267 2.0 6.0 0.00 0.00 0.00 57 1023.4
20210225043154 43 277 2.0 6.0 0.00 0.00 0.00 62 1023.2
20210225040155 43 288 2.0 4.0 0.00 0.00 0.00 73 1022.9
20210225033338 43 192 0.0 4.0 0.00 0.00 0.00 77 1022.7
20210225030156 43 258 3.0 6.0 0.00 0.00 0.00 78 1023.2
20210225023158 43 285 0.0 3.0 0.00 0.00 0.00 78 1022.8
20210225020207 43 259 2.0 4.0 0.00 0.00 0.00 78 1022.3
20210225013254 44 170 4.0 4.0 0.00 0.00 0.00 76 1022.6
20210225010210 46 141 0.0 11.0 0.00 0.00 0.00 75 1022.2